Meteo Giornale » Osservazioni meteo Stati Uniti (USA) » Williamsburg

ore: 13:55 - Osservazioni Meteo Williamsburg
Lat. 37° 14' N Lon. 76° 43' W Alt. 15 metri s.l.m.

sereno

34 °C

Sereno

Temp. 24 Ore

23 °C

34 °C

Ovest

13 Km/h

Dew point 23 °C

Umidità 52 %

Visibilità  10 Km

Il sole sorge alle ore 06:36

Il sole tramonta alle ore 19:37

Data e Ora Cielo e Fenomeni T °C DP °C Um. % Pres. hPa Vis. km Vento km/h
Oggi h: 13:55 sereno Sereno 34 23 52 1018 10 O 13
Oggi h: 13:35 sereno Sereno 34 23 52 1018 10 N 11.1
Oggi h: 13:15 sereno Sereno 34 22 49 1018 10 N 11.1
Oggi h: 12:55 sereno Sereno 33 23 55 1018 10 O 13
Oggi h: 12:35 poco_nuvoloso Poco Nuvoloso 33 23 55 1018 10 N 11.1
Oggi h: 12:15 poco_nuvoloso Poco Nuvoloso 33 24 59 1019 10 N 0
Oggi h: 11:55 sereno Sereno 32 23 59 1019 10 N 5.5
Oggi h: 11:35 sereno Sereno 33 24 59 1019 10 N 5.5
Oggi h: 11:15 sereno Sereno 32 24 62 1019 10 NO 9.3
Oggi h: 10:55 sereno Sereno 31 24 66 1019 10 N/NO 13
Oggi h: 10:35 sereno Sereno 31 24 66 1019 10 N/NO 11.1
Oggi h: 10:15 sereno Sereno 31 23 62 1019 10 NO 13
Oggi h: 09:55 sereno Sereno 29 23 70 1019 10 N/NO 9.3
Oggi h: 09:35 sereno Sereno 29 23 70 1019 10 O/NO 11.1
Oggi h: 09:15 sereno Sereno 27 23 78 1019 10 O 9.3
Oggi h: 08:55 sereno Sereno 27 23 78 1019 10 N 5.5
Oggi h: 08:35 sereno Sereno 27 23 78 1019 10 N 5.5
Oggi h: 08:15 nuvoloso Nuvoloso 25 23 88 1019 10 N 5.5
Oggi h: 07:55 coperto Coperto 25 23 88 1019 10 N 5.5
Oggi h: 07:35 coperto Coperto 24 23 94 1019 10 N 5.5
Oggi h: 07:15 coperto Coperto 24 23 94 1019 10 O/SO 7.4
Oggi h: 06:55 molto_nuvoloso Molto Nuvoloso 23 23 100 1019 10 N 0
Oggi h: 06:35 molto_nuvoloso Molto Nuvoloso 23 23 100 1018 10 N 5.5
Oggi h: 06:15 molto_nuvoloso Molto Nuvoloso 23 23 100 1018 10 N 0
Oggi h: 05:55 molto_nuvoloso Molto Nuvoloso 23 23 100 1018 10 N 5.5
Oggi h: 05:35 molto_nuvoloso Molto Nuvoloso 23 23 100 1018 10 N 0
Oggi h: 05:15 coperto Coperto 23 23 100 1018 10 N 0
Oggi h: 04:55 poco_nuvoloso Poco Nuvoloso 23 23 100 1018 10 N 0
Oggi h: 04:35 sereno Sereno 24 23 94 1018 10 N 5.5
Oggi h: 04:15 sereno Sereno 24 23 94 1018 10 N 5.5
Oggi h: 03:55 sereno Sereno 24 24 100 1018 10 N 5.5
Oggi h: 03:35 sereno Sereno 23 23 100 1018 10 N 5.5
Oggi h: 03:15 sereno Sereno 24 23 94 1019 10 N 5.5
Oggi h: 02:55 sereno Sereno 24 24 100 1019 10 N 5.5
Oggi h: 02:35 sereno Sereno 24 24 100 1018 10 N 5.5
Oggi h: 02:15 sereno Sereno 25 24 94 1019 10 O/SO 7.4
Oggi h: 01:55 sereno Sereno 25 24 94 1019 10 O/SO 7.4
Oggi h: 01:35 sereno Sereno 25 24 94 1019 10 N 5.5
Oggi h: 01:15 sereno Sereno 25 24 94 1019 10 S/SO 11.1
Oggi h: 00:55 sereno Sereno 25 24 94 1019 10 S/SO 7.4
Oggi h: 00:35 sereno Sereno 25 24 94 1019 10 N 5.5
Oggi h: 00:15 sereno Sereno 26 24 88 1019 10 S/SO 9.3
Ieri h: 23:55 sereno Sereno 26 24 88 1019 10 S/SO 7.4
Ieri h: 23:35 sereno Sereno 26 24 88 1019 10 S 7.4
Ieri h: 23:15 sereno Sereno 26 24 88 1019 10 S/SO 9.3
Ieri h: 22:55 sereno Sereno 26 24 88 1019 10 S 9.3
Ieri h: 22:35 sereno Sereno 26 24 88 1019 10 S 7.4
Ieri h: 22:15 sereno Sereno 27 24 83 1019 10 N 7.4
Ieri h: 21:55 sereno Sereno 27 24 83 1019 10 S/SE 11.1
Ieri h: 21:35 sereno Sereno 27 24 83 1020 10 S 13
Ieri h: 21:15 sereno Sereno 27 24 83 1020 10 S 13
Ieri h: 20:55 sereno Sereno 28 25 83 1019 10 S/SE 16.7
Ieri h: 20:35 sereno Sereno 28 25 83 1019 10 S/SE 14.8
Ieri h: 20:15 sereno Sereno 28 25 83 1019 10 S 16.7
Ieri h: 19:55 sereno Sereno 28 25 83 1019 10 S/SE 14.8
Ieri h: 19:35 sereno Sereno 28 25 83 1019 10 S/SE 20.3
Ieri h: 19:15 sereno Sereno 29 24 74 1019 10 S/SE 18.5
Ieri h: 18:55 sereno Sereno 30 24 70 1019 13 S 16.7
Ieri h: 18:35 sereno Sereno 30 23 66 1019 13 S 13
Ieri h: 18:15 sereno Sereno 31 24 66 1019 14 S 16.7
Ieri h: 17:55 sereno Sereno 30 23 66 1019 14 S/SE 14.8
Ieri h: 17:35 sereno Sereno 31 23 62 1019 10 S/SE 13
Ieri h: 17:15 sereno Sereno 31 23 62 1019 10 S/SE 14.8
Ieri h: 16:55 sereno Sereno 32 22 55 1019 10 S 13
Ieri h: 16:35 sereno Sereno 32 22 55 1019 10 S/SE 14.8
Ieri h: 16:15 sereno Sereno 32 23 59 1019 14 S/SE 11.1
Ieri h: 15:55 sereno Sereno 32 22 55 1019 10 S 13
Ieri h: 15:35 poco_nuvoloso Poco Nuvoloso 33 22 52 1019 10 S/SE 14.8
Ieri h: 15:15 molto_nuvoloso Molto Nuvoloso 32 22 55 1019 10 S/SE 14.8
Ieri h: 14:55 molto_nuvoloso Molto Nuvoloso 32 22 55 1020 10 SE 14.8
Ieri h: 14:35 nuvoloso Nuvoloso 32 22 55 1020 10 S/SE 11.1